[Date Prev][Date Next][Thread Prev][Thread Next][Date Index][Thread Index]

[jamsat-news:1072] jas2info #132



=========================   最新情報   ==============================

        Last updated :Sat.24-Apr.-1999 17:00 (JST) #132

====================================================================
   
     衛星情報 FOシリーズの軌道要素、テレメトリ、QSOの状況等を
   まとめてみました.

  1)  FO−29(ふじ3号)は、4月24日(土)15:55(JST)の
     パスではJAモードのアナログ系運用になっており、テレメトリは
     CWモールスの信号で力強くRS59dbで安定して聞こえました.
       
 ■ 軌道要素1:「jamsat−keps:880」より
                 SB KEPS @ AMSAT  $ORB99106.N
                 2Line Orbital Elements 99106.AMSAT

 HR AMSAT ORBITAL ELEMENTS FOR AMATEUR SATELLITES IN NASA FORMAT
 FROM WA5QGD FORT WORTH,TX April 16, 1999
 SEND SUBSCRIBE/UNSUBSCRIBE TO majordomo@amsat.org ONLY
 BID: ORB99106.N

 DECODE 2-LINE ELSETS WITH THE FOLLOWING KEY:
 1 AAAAAU 00  0  0 BBBBB.BBBBBBBB  .CCCCCCCC  00000-0  00000-0 0  DDDZ
 2 AAAAA EEE.EEEE FFF.FFFF GGGGGGG HHH.HHHH III.IIII JJ.JJJJJJJJKKKKKZ
 KEY: A-CATALOGNUM B-EPOCHTIME C-DECAY D-ELSETNUM E-INCLINATION F-RAAN
 G-ECCENTRICITY H-ARGPERIGEE I-MNANOM J-MNMOTION K-ORBITNUM Z-CHECKSUM

 TO ALL RADIO AMATEURS BT

  FO-29
  1 24278U 96046B   99104.89350198  .00000014  00000-0  52998-4 0 02494
  2 24278 098.5531 064.5127 0350628 258.0884 098.0743 13.52666080131250
   
 ■ 軌道要素2:「jamsat−keps:882」より
                 SB KEPS @ AMSAT  $ORB99106.O
                 Orbital Elements  99106.OSCAR

  HR AMSAT ORBITAL ELEMENTS FOR OSCAR SATELLITES
  FROM WA5QGD FORT WORTH,TX April 16, 1999
  SEND SUBSCRIBE/UNSUBSCRIBE TO majordomo@amsat.org ONLY
  BID: ORB99106.O
  TO ALL RADIO AMATEURS BT

  Satellite: FO-29
  Catalog number: 24278
  Epoch time:      99104.89350198
  Element set:    0249
  Inclination:      098.5531 deg
  RA of node:       064.5127 deg
  Eccentricity:    0.0350628
  Arg of perigee:   258.0884 deg
  Mean anomaly:     098.0743 deg
  Mean motion:   13.52666080 rev/day
  Decay rate:        1.4e-07 rev/day^2
  Epoch rev:           13125
  Checksum:              326
 -----------------------------------------------------------
  2)FO−29(ふじ3号)の 4月24日(土)のJAアナログテレメトリの
    一部分は次のようになっていました.24日以前のデータも一部分を掲示
    しておきます.

  AS13253C1   24Apr99
  JST  15:06 - 15:11

 HI HI AE C7 88 55 0A FF FF 25 00 56 69 98 82 60 93 9  B9 E3 B5 B1 B2 B5 B2 
 HI HI AE C7 88 55 10 FF 0A 0D 00 56 9E 4D 8A 60 93 90 B0 73 B5 B1 B2 B5 B2 
 HI HI AE C7 88 55 15 FF FF 1E 00 56 48 45 8A 60 93 90 B0 8A B5 B0 B2 B5 B2 
 HI HI AE C7 88 55 1A FF FF 0D 00 56 76 A3 80 60 93 91 B0 6D B5 B0 B2 B4 B2 
 HI HI AE C7 88 55 1F FF FF 1A 00 56 9A 3D 88 60 93 91 B0 76 B5 B0 B2 B5 B2 
 HI HI AE C7 88 55 04 FF FF 0D 00 56 39 57 88 60 93 91 B0    B5 B0 B1 B5 B2 
 HI HI AE C7 87 55 09 FF FF 0D 00 56 87 A5 88 60 94 91 B0 84 B5 B0 B1 B4 B2 
 HI HI AE C7 88 55 0F FF FF 0D 00 56 8B 2B 83 60 94 91 B0 58 B5 AF B1 B4 B2 
  
  AS13185C1  19Apr99
  JST  15:13 - 15:27
                      D7 FF 0D 00 56 4E 96 8A 60 94 90 B9 8B B6 B5 B4 B3 B0
 HI HI AE C7 88 55 11 D7 FF 00 00 56 6E 3B 8A 42 95 93 B0 9D B6 B5 B4 B3 B0 
 HI HI AE 07 88 55 01 D7 FF 0D 00 56 8A 87 88 42 95 92 AA TI B5 B4 B4 B2 B0 
 HI HI AE 07 88 55 06 D7 FF 0D 00 56 40 66 7A 4C 95 92 A0 81 B5 B4 B3 B2 B0 
 HI HI AE C7 88 55 0B D7 FF 0D 00 56 7F 43 8C 5F 92 8F B0 85 B5 B4 B3 B2 B0 
 HI HI AE C7 88 55 10 D7 FF 05 00 56 6B 81 86 60 93 90 B0 8B B5 B4 B3 B2 B0 
 HI HI AE 07 88 55 15 D7 1E 1E 00 56 50 42 7B 5F 92 8F 9E 85 B5 B4 B3 B2 B0 
 HI HI AE C7 88 55 1A D7 FF 0D 00 56 83 54 7F 48 95 92 B0 76 B5 B4 B3 B1 B0 
 HI HI AE C7 88 55 1F D7 FF 0D 00 56 5C 5F 88 60 93 90 B0 8C B5 B4 B3 B1 B0 
 HI HI AE C7 88 55 05 D7 FF 0D 00 56 67 3A 8B 60 93 90 B0 83 B5 B4 B3 B1 B0 
 HI HI AE C7 88 55 0A D7 FF 0D 00 56 77 4D 74 60 93 90 B0 7A B5 B4 B3 B1 B1 
 HI HI AE C7 88 55 0F D7 FF 1A 00 56 64 44 87 46 94 91 B0 8B B4 B3 B3 B1 B1 
 HI HI AE C7 88 55 14 D7 FF 0D 00 56 71 3C 8B 5F 93 8F B0 7E B4 B3 B2 B1 B0 
 HI HI AE 07 88 55 19 D7 FF 1E 00 56 71 39 82 5F 93 90 B0 9B B4 B3 B2 B1 B0 
 HI HI AE C7 88 55 1E D7 FF 0D 00 56 78 37 80 5F 92 8F B0 73 B4 B3 B2 B0 B1 
 HI HI AE C7 88 55 04 D7 FF 0D 00 56 6A 35 76 4C 95 91 B0 79 B4 B3 B2 B0 B1 
 HI HI AE C7 88 55 09 D7 FF 0D 00 56 80 31 8A 60 92 90 B0 80 B4 B3 B2 B0 B1 
 HI HI AE C7 88 55 11 D7 FF 1E 00 56 7D 2A    60 92 8F B0 84 B4 B3 B2 B0 B1 
 HI HI AE C7 88 55 13 D7 1E 25 00 56 64 27 82 5F 92 8F B0 7F B3 B3 B2 B0 B1 
 HI HI AE C7 88 55 18 D7 05 0D 00 56 9A 42 8C 60 93 8F B0 71 B3 B3 B2 B0 B1 
 HI HI AE C7 88 55 1E D7 FF 0D 00 56 6B 31 7B 5F 92 90 B0 8B B3 B2 B2 AF B1 

  AS13197C1   20APR99
  JST  12:43 - 14:49

 HI HI AE C7 88 55 1A D7 FF  D 00 56 42 54 90 5F 92 8F B1 7A B4 B2 B2 B1 B1 
 HI HI AE C7 88 55 1F D7 FF 0D 00 56 80 44 91 5F 92 86 B4 B2 B2 B1 B1 B1 B1
 HI HI AE C6 88 55 05 D7 FF 0D 00 56 61 86 93 5F 92 8F B0 93 B4 B2 B1 B1 B1 
 HI HI AE C7 88 55 0A D7 0A 0D 00 56 47 34 8B 5F 92 8F B0 6D B4 B2 B1 B1 B1 
 HI HI AE C7 88 55 0F D7 FF 0D 00 56 96 5A 89 5F 92 90 B0 8A B3 B1 B1 B1 B1 
 HI HI AE C7 88 55 14 D7 FF 0D 00 56 45 80 97 5F 92 8F B0 70 B3 B1 B1 B0 B1 
 HI HI AE C7 88 55 19 D7 FF 1E 00 56 62 24 90 5F 93 8F B0 72 B3 B1 B1 AF B1 
 HI HI AE C7 88 55 1F D7 FF 0D 00 56
 
 AS13199C1    20Apr99
 JST   14:05 - 16:49

 HI HI AE C7 88 51 1C DF FF 0D 00 56 77 3F 75 5F 94 91 A0 7E B6 B2 B2 B5 B1 
 HI HI AE C7 88 51 01 DF 0A 0D 00 56 5D 8D 89 5F 92 8F B1 6F B6 B2 B2 B5 B1 
 HI HI AE C7 88 51 06 DF 1E 0D 00 56 95 77 6D 60 93 90 B0 80 B6 B2 B2 B5 B1 
 HI HI AE C7 88 51 0B DF 05 0D 00 56 70 58 79 5F 92 8F B0 88 B6 B2 B2 B5 B1 
 HI HI AE C7 88 51 12 DF FF 0D 00 56 77 95 77 5F 92 8F B0 76 B6 B2 B2 B4 B1 
 HI HI AE 07 88 51 16 DF 0A 0D 00 56 92 65 6B 60 93 90 B0 62 B6 B2 B2 B5 B1 
 HI HI AE C7 88 51 1B DF FF 0D 00 56 72 7C 83 60 92 90 B0 6A B6 B2 B2 B5 B1 
 HI HI AE C7 88 51 00 DF FF 0D 00 56 8D 89 7F 5F 92 90 B0 83 B6 B1 B2 B5 B1 
 HI HI AE C7 88 51 05 DF FF 0D 00 56 80 93 8B 5F 92 90 B0 5F B6 B1 B2 B5 B1 
 HI HI AE C7 88 51 10 DF FF 0D 00 56 81 92    5F 93 90 B0 6E B6 B1 B1 B5 B1  
 H1 HI AE C7 88 51 15 DF FF 0D 00 56 78 90 6A 5F 93    B0 52 B6 B1 B1 B5 B1 
 HI HI AE C7 88 51 1A DF FF 0D 00 56 94 90 8A 60 93 90 B0 47 B6 B0 B1 B5 B1 
 HI HI AE C7 88 51 00 DF FF 0D 00 56 83 7B 6A 60 93 90 AF 71 B6 B0 B1 B4 B1 
 HI HI AE C7 88 51 05 DF FF 0D 00 56 77 AB 70 60 93 90 B0 A5 B6 B0 B1 B5 B1 
 HI HI AE C7 88 51 0A DF FF 0D 00 56 A1 7C 83 60 93 90 B0 7D B6 B0 B1 B4 B1 
 HI HI AE C7 88 51 0F DF FF 0D 00 56 6D 8F    60 93 90 B0 7E B6 B0 B1 B5 B1 
 HI HI AE C7 88 51 14 DF FF 0D 00 56 81 AB 6F 60 93 90 B0 67 B5 B0 B1 B4 B1 

 AS13251C1    24Apr99
 JAS  12:32 - 12:42

 HI HI AE C7 88 55    FF FF 1A 00 56 92 62 80 60 93 90 B0 76 B8 B2 B3 B7 B3
 HI HI AE C7 88 55 0F FF FF 0D 00 56 61 8A 68 60 93 90 B0 58 B8 B2 B3 B7 H3 
 HI HI AE C7 88 55 15 FF FF 0D 00 56 89 97 7E 60 93 90 B0 5F B8 B1 B3 B7 B3 
 HI HI AE C7 88 55 1A FF FF 0D 00 56 8D 5B 7D 60 93 90 B0 90 B8 B1 B3 B7 B3 
 HI HI AE C7 88 55 1F FF FF 0D 00 56 57 9C 64 60 93 90 B0 55 B8 B1 B3 B7 B3 
 HI HI AE C7 88 55 04 FF FF 0D 00 56 92 8A 7E 60 93 90 B0 83 B7 B1 B3 B7 B3 
 HI HI AE C7 88 55 09 FF FF 0D 00 56 83 5D 7A 60 93 90 B0 7C B7 B1 B3 B7 B3
 HI HI AE C7 88 55 14 FF FF 0D 00 56 98 7B 7F 60 94 91 B0 5F B7 B1 B3 B7 B3 
 HI HI AE C7 88 55 19 FF FF 0D 00 56 7A 61 78 60 94 91 B0 8E B7 B1 B2 B7 B3 
 HI HI AE C7 88 55 1E FF FF 0D 00 56 45 A5 67 60 94 91 B0 87 B7 B0 B2 B7 B3
 HI HI AE C' 88 55    FF FF 00 00 56          60 94 91 B0 6A B7 B0 B2 B7 B3 
 HI HI AE C7 88 55 08 FF 0A 0D0 SETE 6D 6B 74 60 94 91 B0 70 B7 B0 B2 B6 B3 
 HI HI AE C7 88 55  

  AS13252C1     24Apr99
  JST  14:09 - 14:26
                                  
 HI HI AE C7 88 55 1A FF FF 00 00 56 8D 84 77 60 95 90 B0 64 B8 B3 B4 B7 B2 
 HI HI AE C7 88 55 1F FF FF 0D 00 56 77 85 66 59 95 91 B0 7E B8 B3 B4 B7 B2 
 HI HI AE C7 88 55 1E FF FF 0D 00 56                 0 B0    B8 B2 B4 B7 B2 
 HI HI AE C7 88 55 09 FF FF 0D 00 56 92 75 75 60 93 91 B0 99 B7 B2 B4 B7 B2 
 HI HI AE C7 88 55 0E FF FF OD 00 56 6D 64 EO 60 92 8F B0 90 B7 B2 B3 B7 B2 
 HI HI AE C7 88 55 19 FF FF 0D 00 56 69 66 E2 5F 92 8F B0 A2 B7 B2 B4 B7 B2 
 HI HI AE C7 88 55 1E FF FF 0D 00 56 66 7B 65 5F 92 8F B0 88 B7 B2 B3 B7 B2 
 HI HI AE C7 88 55 03 FF FF 0D 00 56 81 98 87 5F 92 90 B0 76 B7 B2 B3 B6 B2 
 HI HI AE C7 88 55 08 FF FF 25 00 56 8C 60 72 60 92 90 B0 77 B7 B1 B3 B7 B2 
 HI HI AE C7 88 55 0D FF FF 1A 00 56 60 94 64 60 93 90 B0 82 B7 B1 B3 B7 B3 
 HI HI AE C7 88 55 13 FF 1E 25 00 56 92 8B 87 5F 93 90 B0 87 B7 B1 B3 B7 B3
 HI HI AE C7 88 55 18 FF FF 0D 00 56 7E 61 6D 60 93 90 B0 5D B7 B1 B3 B7 B3 
 HI HI AE C7 88 55 1D FF FF 0D 00 56 5C A6 75 60 93 90 B0 91 B7 B1 B3 B7 B3 
 HI HI AE C7 88 55 02 FF FF 0D 00 56 9C 7D 84 60 93 90 B0 81 B7 B0 B5 B7 B3 
 HI HI AE C7 88 55 07 FF 0A 0D 00 56 70 6C 69 60 93 90 B0 89 B7 B0 B3 B6 B2 
 HI HI AE C7 88 55 0D FF FF 0D 00 56 5E AD 6A 60 93 90 AF 84 B7 B0 B2 B7 B3 
 HI HI AE C7 88 55 12 FF FF 0D 00 56 A3 6B 82 60 93 90 B0 6F B7 B0 B2 B6 B2 
 HI HI AE C7 88 55 17 FF FF 0D 00 56 61 78 6A 60 93 90 B0 8F B7 B0 B2 B6 B2 
 HI HI AE C7 88 55 1C FF FF 0D 00 56 5D A7 68 60 93 91 B0 7C B7 B0 B2 B6 B3 
 HI HI AE C7 88 55 01 FF FF 0D 00 56 A6 5C 82 60 93 91 B0 72 B6 B0 B2 B6 B2 
 HI HI AE C7 88 55 06 FF FF 0D 7I 56          60 94 91 AF 83 B6 AF B2 B6 B3 
 HI HI AE C7 88 55 0B FF 0A 0D 00 56 5E 95 6D 60 94 91 B0 84 B6 AF B2 B6 B3 
 HI HI AE C7 88 55 10 FF FF 0D 00 56 A6 54 7D 60 94 91 B0 7F B6 AF B1 B6 B3 
 HI HI AE C7 88 55 15 FF FF 1D 00 56 47 86 69 61 94 91 B0 6E B6 AF B1 B6 B3 
 HI HI AE C7 88 55 1E FF FF 1E 00 56 


  3)  JAアナログテレメトリの 4月24日(土)の
    
  JST 16:06 - 16:11のパスの最後の行目の換算例.

  テレメトリ    内   容	       換算値  単 位
3C	磁気センサーZ軸	=	68137.2	nT
3D	磁気センサX軸	=	21078.4	nT
4A	太陽電池発生電流	=	 1284.3	mA
4B	B充放電電流	=	 -118.4	mA
4C	B端子電圧	=	   15.9	V
4D	B中間端子電圧	=	    7.0	V
5A	バス電圧 	=	   17.3	V
5B	JTA送信電力	=	  473.9	mW
5C 	構体温度1	= 	   11.6	℃
5D	構体温度2	=	   13.9	℃
6A	構体温度3	=	   13.1	℃
6B	構体温度4	=	   12.0	℃
6C	Bセル温度	=	   12.8	℃

 *計算処理は OFFICE 97 を使用.
 
===============   FO−29(ふじ 3号)のQSO について   ===================

  [jamsat-news:1065]にJN1GKZ局 新井氏がCW運用状況を投稿されていましたので
 一部分ですが転載させて頂きました.
   
